| time (UTC) | temp F | wind direction | speed MPH | gust MPH | rain 1hr in | rain 24hr in | rain mn in | humidity % | barometer mb |
| 20260505194530 | 59 | 191 | 8.0 | 22.0 | 0.00 | 0.00 | 0.00 | 73 | 1006.2 |
| 20260505193030 | 59 | 133 | 6.0 | 19.0 | 0.00 | 0.00 | 0.00 | 74 | 1006.6 |
| 20260505191539 | 57 | 186 | 12.0 | 20.0 | 0.00 | 0.00 | 0.00 | 78 | 1006.6 |
| 20260505190037 | 52 | 161 | 11.0 | 25.0 | 0.00 | 0.00 | 0.00 | 85 | 1006.4 |
| 20260505184531 | 51 | 148 | 17.0 | 25.0 | 0.00 | 0.01 | 0.00 | 85 | 1006.5 |
| 20260505183030 | 51 | 156 | 19.0 | 24.0 | 0.00 | 0.01 | 0.00 | 85 | 1006.8 |
| 20260505181527 | 51 | 151 | 20.0 | 24.0 | 0.00 | 0.01 | 0.00 | 86 | 1007.0 |
| 20260505180037 | 51 | 144 | 18.0 | 24.0 | 0.00 | 0.01 | 0.00 | 85 | 1007.2 |
| 20260505174530 | 51 | 144 | 20.0 | 23.0 | 0.00 | 0.01 | 0.00 | 85 | 1007.5 |
| 20260505173030 | 51 | 146 | 19.0 | 24.0 | 0.00 | 0.01 | 0.00 | 85 | 1007.7 |
| 20260505171528 | 51 | 155 | 20.0 | 28.0 | 0.00 | 0.01 | 0.00 | 85 | 1007.8 |
| 20260505170034 | 53 | 141 | 12.0 | 22.0 | 0.00 | 0.01 | 0.00 | 79 | 1007.9 |
| 20260505164537 | 55 | 200 | 6.0 | 16.0 | 0.00 | 0.01 | 0.00 | 77 | 1008.4 |
| 20260505163032 | 56 | 192 | 6.0 | 20.0 | 0.00 | 0.01 | 0.00 | 76 | 1008.6 |
| 20260505161530 | 56 | 252 | 6.0 | 21.0 | 0.00 | 0.01 | 0.00 | 77 | 1008.6 |
| 20260505153037 | 58 | 146 | 8.0 | 20.0 | 0.00 | 0.01 | 0.00 | 74 | 1008.4 |
| 20260505151530 | 58 | 259 | 8.0 | 27.0 | 0.00 | 0.01 | 0.00 | 74 | 1008.6 |
| 20260505124530 | 50 | 157 | 16.0 | 18.0 | 0.00 | 0.01 | 0.00 | 83 | 1008.9 |
| 20260505123042 | 49 | 161 | 11.0 | 17.0 | 0.00 | 0.01 | 0.00 | 83 | 1009.0 |
| 20260505121532 | 50 | 165 | 11.0 | 17.0 | 0.00 | 0.01 | 0.00 | 83 | 1009.2 |
| 20260505120040 | 50 | 163 | 10.0 | 17.0 | 0.00 | 0.01 | 0.00 | 83 | 1009.1 |
| 20260505114530 | 51 | 187 | 9.0 | 14.0 | 0.00 | 0.01 | 0.00 | 81 | 1008.9 |
| 20260505113027 | 51 | 184 | 8.0 | 13.0 | 0.00 | 0.01 | 0.00 | 80 | 1008.8 |
| 20260505111533 | 50 | 190 | 9.0 | 12.0 | 0.00 | 0.01 | 0.00 | 81 | 1008.7 |
| 20260505101534 | 49 | 143 | 3.0 | 8.0 | 0.00 | 0.01 | 0.00 | 82 | 1008.9 |
| 20260505100032 | 49 | 190 | 2.0 | 8.0 | 0.00 | 0.01 | 0.00 | 82 | 1008.6 |
| 20260505094530 | 48 | 153 | 5.0 | 9.0 | 0.00 | 0.01 | 0.00 | 82 | 1008.5 |
| 20260505093027 | 48 | 169 | 6.0 | 11.0 | 0.00 | 0.01 | 0.00 | 82 | 1008.5 |
| 20260505091532 | 48 | 165 | 4.0 | 11.0 | 0.00 | 0.01 | 0.00 | 83 | 1008.2 |
| 20260505090030 | 48 | 163 | 5.0 | 8.0 | 0.00 | 0.01 | 0.00 | 83 | 1008.3 |
| 20260505084544 | 48 | 186 | 5.0 | 10.0 | 0.00 | 0.01 | 0.00 | 82 | 1008.3 |
| 20260505083046 | 48 | 197 | 3.0 | 7.0 | 0.00 | 0.01 | 0.00 | 82 | 1008.2 |
| 20260505081530 | 48 | 188 | 3.0 | 6.0 | 0.00 | 0.01 | 0.00 | 81 | 1008.2 |
| 20260505080043 | 49 | 171 | 3.0 | 7.0 | 0.00 | 0.01 | 0.00 | 81 | 1008.0 |
| 20260505074530 | 49 | 158 | 3.0 | 9.0 | 0.00 | 0.01 | 0.00 | 80 | 1008.0 |
| 20260505073040 | 49 | 174 | 4.0 | 9.0 | 0.00 | 0.01 | 0.00 | 80 | 1008.0 |
| 20260505071541 | 49 | 176 | 5.0 | 12.0 | 0.00 | 0.01 | 0.00 | 79 | 1008.0 |
| 20260505070040 | 49 | 232 | 4.0 | 13.0 | 0.00 | 0.01 | 0.00 | 79 | 1008.0 |
| 20260505064536 | 49 | 159 | 6.0 | 15.0 | 0.00 | 0.01 | 0.00 | 79 | 1008.0 |
| 20260505063038 | 49 | 199 | 7.0 | 11.0 | 0.00 | 0.01 | 0.00 | 79 | 1007.9 |
| 20260505061531 | 49 | 169 | 5.0 | 12.0 | 0.00 | 0.01 | 0.00 | 79 | 1007.9 |
| 20260505060051 | 49 | 190 | 5.0 | 13.0 | 0.00 | 0.01 | 0.00 | 79 | 1007.8 |
| 20260505054531 | 49 | 197 | 5.0 | 9.0 | 0.00 | 0.01 | 0.00 | 79 | 1007.8 |
| 20260505053037 | 50 | 201 | 5.0 | 12.0 | 0.00 | 0.01 | 0.00 | 79 | 1007.7 |
| 20260505051530 | 49 | 191 | 2.0 | 9.0 | 0.00 | 0.01 | 0.00 | 79 | 1007.5 |
| 20260505041536 | 48 | 164 | 3.0 | 7.0 | 0.00 | 0.01 | 0.00 | 82 | 1007.7 |
| 20260505040034 | 47 | 166 | 3.0 | 8.0 | 0.00 | 0.01 | 0.00 | 84 | 1007.7 |
| 20260505034530 | 46 | 0 | 0.0 | 1.0 | 0.00 | 0.01 | 0.01 | 84 | 1007.7 |
| 20260505033034 | 46 | 155 | 0.0 | 3.0 | 0.00 | 0.01 | 0.01 | 83 | 1007.6 |
| 20260505031532 | 46 | 0 | 0.0 | 3.0 | 0.00 | 0.01 | 0.01 | 84 | 1007.6 |
| 20260505030031 | 46 | 155 | 1.0 | 3.0 | 0.00 | 0.01 | 0.01 | 85 | 1007.7 |
| 20260505024528 | 45 | 0 | 0.0 | 4.0 | 0.00 | 0.01 | 0.01 | 85 | 1007.7 |
| 20260505023028 | 45 | 0 | 0.0 | 3.0 | 0.00 | 0.01 | 0.01 | 84 | 1007.5 |
| 20260505021531 | 46 | 157 | 0.0 | 1.0 | 0.00 | 0.01 | 0.01 | 82 | 1007.5 |
| 20260505020035 | 46 | 0 | 0.0 | 1.0 | 0.00 | 0.01 | 0.01 | 81 | 1007.5 |
| 20260505014535 | 46 | 0 | 0.0 | 1.0 | 0.00 | 0.01 | 0.01 | 81 | 1007.6 |
| 20260505013039 | 47 | 0 | 0.0 | 2.0 | 0.00 | 0.01 | 0.01 | 80 | 1007.4 |
| 20260505011535 | 48 | 0 | 0.0 | 2.0 | 0.00 | 0.01 | 0.01 | 79 | 1007.4 |
| 20260505010028 | 48 | 269 | 0.0 | 1.0 | 0.00 | 0.01 | 0.01 | 78 | 1007.3 |
| 20260505004541 | 48 | 0 | 0.0 | 2.0 | 0.00 | 0.01 | 0.01 | 78 | 1007.1 |
| 20260505003049 | 49 | 0 | 1.0 | 6.0 | 0.00 | 0.01 | 0.01 | 77 | 1006.8 |
| 20260505001528 | 49 | 201 | 6.0 | 15.0 | 0.00 | 0.01 | 0.01 | 77 | 1006.6 |
| 20260505000034 | 50 | 167 | 7.0 | 14.0 | 0.00 | 0.01 | 0.01 | 76 | 1006.2 |
| 20260504234530 | 51 | 213 | 8.0 | 12.0 | 0.00 | 0.01 | 0.01 | 73 | 1006.0 |
| 20260504233029 | 53 | 194 | 6.0 | 11.0 | 0.00 | 0.01 | 0.01 | 72 | 1005.7 |
| 20260504231527 | 54 | 168 | 7.0 | 11.0 | 0.00 | 0.01 | 0.01 | 69 | 1005.6 |
| 20260504230032 | 56 | 196 | 4.0 | 8.0 | 0.00 | 0.01 | 0.01 | 65 | 1005.4 |
| 20260504224530 | 58 | 167 | 5.0 | 8.0 | 0.00 | 0.01 | 0.01 | 62 | 1005.2 |
| 20260504223032 | 60 | 177 | 4.0 | 6.0 | 0.00 | 0.01 | 0.01 | 58 | 1005.4 |
| 20260504221529 | 61 | 199 | 2.0 | 7.0 | 0.00 | 0.01 | 0.01 | 57 | 1005.4 |
| 20260504220032 | 60 | 180 | 0.0 | 9.0 | 0.00 | 0.01 | 0.01 | 58 | 1005.3 |
| 20260504214529 | 60 | 188 | 2.0 | 10.0 | 0.00 | 0.01 | 0.01 | 57 | 1005.0 |
| 20260504213030 | 61 | 197 | 5.0 | 12.0 | 0.00 | 0.01 | 0.01 | 57 | 1004.9 |
| 20260504211536 | 60 | 222 | 3.0 | 13.0 | 0.00 | 0.01 | 0.01 | 58 | 1004.9 |
| 20260504210028 | 60 | 201 | 2.0 | 11.0 | 0.00 | 0.01 | 0.01 | 59 | 1004.8 |
| 20260504204529 | 60 | 194 | 8.0 | 17.0 | 0.00 | 0.01 | 0.01 | 58 | 1004.8 |
| 20260504203032 | 60 | 186 | 3.0 | 12.0 | 0.00 | 0.01 | 0.01 | 58 | 1004.7 |
| 20260504201530 | 60 | 221 | 7.0 | 15.0 | 0.00 | 0.01 | 0.01 | 60 | 1004.6 |
| 20260504200030 | 59 | 199 | 6.0 | 13.0 | 0.00 | 0.01 | 0.01 | 62 | 1004.7 |